Year,Month,Day,Hour,Minute,Value (Times are PST for temperature in C)
2015,12,12,00,00,2.10
2015,12,12,00,01,2.10
2015,12,12,00,02,2.10
2015,12,12,00,03,2.20
2015,12,12,00,04,2.20
2015,12,12,00,05,2.30
2015,12,12,00,06,2.30
2015,12,12,00,07,2.50
2015,12,12,00,08,2.50
2015,12,12,00,09,2.60
2015,12,12,00,10,2.60
2015,12,12,00,11,2.60
2015,12,12,00,12,2.60
2015,12,12,00,13,2.50
2015,12,12,00,14,2.40
2015,12,12,00,15,2.40
2015,12,12,00,16,2.40
2015,12,12,00,17,2.30
2015,12,12,00,18,2.30
2015,12,12,00,19,2.30
2015,12,12,00,20,2.20
2015,12,12,00,21,2.20
2015,12,12,00,22,2.10
2015,12,12,00,23,2.10
2015,12,12,00,24,2.10
2015,12,12,00,25,2.10
2015,12,12,00,26,2.20
2015,12,12,00,27,2.20
2015,12,12,00,28,2.20
2015,12,12,00,29,2.20
2015,12,12,00,30,2.30
2015,12,12,00,31,2.40
2015,12,12,00,32,2.50
2015,12,12,00,33,2.50
2015,12,12,00,34,2.60
2015,12,12,00,35,2.60
2015,12,12,00,36,2.60
2015,12,12,00,37,2.70
2015,12,12,00,38,2.70
2015,12,12,00,39,2.80
2015,12,12,00,40,2.80
2015,12,12,00,41,2.80
2015,12,12,00,42,2.80
2015,12,12,00,43,2.80
2015,12,12,00,44,2.70
2015,12,12,00,45,2.70
2015,12,12,00,46,2.70
2015,12,12,00,47,2.70
2015,12,12,00,48,2.60
2015,12,12,00,49,2.60
2015,12,12,00,50,2.60
2015,12,12,00,51,2.50
2015,12,12,00,52,2.50
2015,12,12,00,53,2.50
2015,12,12,00,54,2.40
2015,12,12,00,55,2.40
2015,12,12,00,56,2.40
2015,12,12,00,57,2.40
2015,12,12,00,58,2.40
2015,12,12,00,59,2.40
2015,12,12,01,00,2.40
2015,12,12,01,01,2.50
2015,12,12,01,02,2.50
2015,12,12,01,03,2.60
2015,12,12,01,04,2.60
2015,12,12,01,05,2.60
2015,12,12,01,06,2.70
2015,12,12,01,07,2.70
2015,12,12,01,08,2.80
2015,12,12,01,09,2.80
2015,12,12,01,10,2.80
2015,12,12,01,11,2.90
2015,12,12,01,12,2.90
2015,12,12,01,13,3.00
2015,12,12,01,14,3.00
2015,12,12,01,15,3.00
2015,12,12,01,16,3.10
2015,12,12,01,17,3.10
2015,12,12,01,18,3.10
2015,12,12,01,19,3.10
2015,12,12,01,20,3.10
2015,12,12,01,21,3.10
2015,12,12,01,22,3.10
2015,12,12,01,23,3.20
2015,12,12,01,24,3.20
2015,12,12,01,25,3.20
2015,12,12,01,26,3.20
2015,12,12,01,27,3.20
2015,12,12,01,28,3.20
2015,12,12,01,29,3.20
2015,12,12,01,30,3.20
2015,12,12,01,31,3.20
2015,12,12,01,32,3.20
2015,12,12,01,33,3.20
2015,12,12,01,34,3.10
2015,12,12,01,35,3.20
2015,12,12,01,36,3.20
2015,12,12,01,37,3.20
2015,12,12,01,38,3.10
2015,12,12,01,39,3.10
2015,12,12,01,40,3.10
2015,12,12,01,41,3.20
2015,12,12,01,42,3.20
2015,12,12,01,43,3.20
2015,12,12,01,44,3.20
2015,12,12,01,45,3.20
2015,12,12,01,46,3.20
2015,12,12,01,47,3.20
2015,12,12,01,48,3.20
2015,12,12,01,49,3.20
2015,12,12,01,50,3.20
2015,12,12,01,51,3.20
2015,12,12,01,52,3.20
2015,12,12,01,53,3.20
2015,12,12,01,54,3.10
2015,12,12,01,55,3.20
2015,12,12,01,56,3.10
2015,12,12,01,57,3.10
2015,12,12,01,58,3.10
2015,12,12,01,59,3.10
2015,12,12,02,00,3.10
2015,12,12,02,01,3.20
2015,12,12,02,02,3.20
2015,12,12,02,03,3.20
2015,12,12,02,04,3.20
2015,12,12,02,05,3.20
2015,12,12,02,06,3.20
2015,12,12,02,07,3.10
2015,12,12,02,08,3.10
2015,12,12,02,09,3.10
2015,12,12,02,10,3.10
2015,12,12,02,11,3.10
2015,12,12,02,12,3.10
2015,12,12,02,13,3.10
2015,12,12,02,14,3.10
2015,12,12,02,15,3.10
2015,12,12,02,16,3.20
2015,12,12,02,17,3.20
2015,12,12,02,18,3.20
2015,12,12,02,19,3.20
2015,12,12,02,20,3.20
2015,12,12,02,21,3.20
2015,12,12,02,22,3.20
2015,12,12,02,23,3.20
2015,12,12,02,24,3.20
2015,12,12,02,25,3.20
2015,12,12,02,26,3.20
2015,12,12,02,27,3.20
2015,12,12,02,28,3.20
2015,12,12,02,29,3.20
2015,12,12,02,30,3.20
2015,12,12,02,31,3.20
2015,12,12,02,32,3.20
2015,12,12,02,33,3.20
2015,12,12,02,34,3.20
2015,12,12,02,35,3.20
2015,12,12,02,36,3.20
2015,12,12,02,37,3.20
2015,12,12,02,38,3.20
2015,12,12,02,39,3.10
2015,12,12,02,40,3.10
2015,12,12,02,41,3.10
2015,12,12,02,42,3.10
2015,12,12,02,43,3.10
2015,12,12,02,44,3.10
2015,12,12,02,45,3.10
2015,12,12,02,46,3.10
2015,12,12,02,47,3.10
2015,12,12,02,48,3.00
2015,12,12,02,49,3.00
2015,12,12,02,50,3.00
2015,12,12,02,51,3.00
2015,12,12,02,52,3.00
2015,12,12,02,53,3.00
2015,12,12,02,54,3.00
2015,12,12,02,55,3.00
2015,12,12,02,56,3.00
2015,12,12,02,57,3.00
2015,12,12,02,58,3.00
2015,12,12,02,59,3.00
2015,12,12,03,00,2.90
2015,12,12,03,01,3.00
2015,12,12,03,02,3.00
2015,12,12,03,03,3.00
2015,12,12,03,04,3.00
2015,12,12,03,05,3.00
2015,12,12,03,06,3.00
2015,12,12,03,07,3.10
2015,12,12,03,08,3.10
2015,12,12,03,09,3.10
2015,12,12,03,10,3.20
2015,12,12,03,11,3.20
2015,12,12,03,12,3.20
2015,12,12,03,13,3.20
2015,12,12,03,14,3.20
2015,12,12,03,15,3.20
2015,12,12,03,16,3.20
2015,12,12,03,17,3.20
2015,12,12,03,18,3.20
2015,12,12,03,19,3.20
2015,12,12,03,20,3.10
2015,12,12,03,21,3.10
2015,12,12,03,22,3.10
2015,12,12,03,23,3.10
2015,12,12,03,24,3.10
2015,12,12,03,25,3.10
2015,12,12,03,26,3.10
2015,12,12,03,27,3.00
2015,12,12,03,28,3.00
2015,12,12,03,29,3.00
2015,12,12,03,30,3.00
2015,12,12,03,31,3.10
2015,12,12,03,32,3.10
2015,12,12,03,33,3.10
2015,12,12,03,34,3.10
2015,12,12,03,35,3.10
2015,12,12,03,36,3.10
2015,12,12,03,37,3.10
2015,12,12,03,38,3.10
2015,12,12,03,39,3.10
2015,12,12,03,40,3.10
2015,12,12,03,41,3.10
2015,12,12,03,42,3.20
2015,12,12,03,43,3.20
2015,12,12,03,44,3.20
2015,12,12,03,45,3.20
2015,12,12,03,46,3.20
2015,12,12,03,47,3.20
2015,12,12,03,48,3.20
2015,12,12,03,49,3.30
2015,12,12,03,50,3.30
2015,12,12,03,51,3.30
2015,12,12,03,52,3.30
2015,12,12,03,53,3.30
2015,12,12,03,54,3.30
2015,12,12,03,55,3.30
2015,12,12,03,56,3.30
2015,12,12,03,57,3.30
2015,12,12,03,58,3.40
2015,12,12,03,59,3.40
2015,12,12,04,00,3.40
2015,12,12,04,01,3.40
2015,12,12,04,02,3.40
2015,12,12,04,03,3.40
2015,12,12,04,04,3.40
2015,12,12,04,05,3.40
2015,12,12,04,06,3.50
2015,12,12,04,07,3.50
2015,12,12,04,08,3.50
2015,12,12,04,09,3.50
2015,12,12,04,10,3.50
2015,12,12,04,11,3.50
2015,12,12,04,12,3.50
2015,12,12,04,13,3.50
2015,12,12,04,14,3.50
2015,12,12,04,15,3.50
2015,12,12,04,16,3.60
2015,12,12,04,17,3.50
2015,12,12,04,18,3.50
2015,12,12,04,19,3.60
2015,12,12,04,20,3.50
2015,12,12,04,21,3.60
2015,12,12,04,22,3.60
2015,12,12,04,23,3.60
2015,12,12,04,24,3.60
2015,12,12,04,25,3.60
2015,12,12,04,26,3.60
2015,12,12,04,27,3.60
2015,12,12,04,28,3.60
2015,12,12,04,29,3.60
2015,12,12,04,30,3.60
2015,12,12,04,31,3.60
2015,12,12,04,32,3.60
2015,12,12,04,33,3.60
2015,12,12,04,34,3.60
2015,12,12,04,35,3.60
2015,12,12,04,36,3.60
2015,12,12,04,37,3.60
2015,12,12,04,38,3.60
2015,12,12,04,39,3.60
2015,12,12,04,40,3.60
2015,12,12,04,41,3.60
2015,12,12,04,42,3.60
2015,12,12,04,43,3.60
2015,12,12,04,44,3.60
2015,12,12,04,45,3.60
2015,12,12,04,46,3.60
2015,12,12,04,47,3.60
2015,12,12,04,48,3.60
2015,12,12,04,49,3.60
2015,12,12,04,50,3.60
2015,12,12,04,51,3.60
2015,12,12,04,52,3.60
2015,12,12,04,53,3.60
2015,12,12,04,54,3.60
2015,12,12,04,55,3.60
2015,12,12,04,56,3.60
2015,12,12,04,57,3.60
2015,12,12,04,58,3.60
2015,12,12,04,59,3.60
2015,12,12,05,00,3.60
2015,12,12,05,01,3.60
2015,12,12,05,02,3.60
2015,12,12,05,03,3.60
2015,12,12,05,04,3.60
2015,12,12,05,05,3.60
2015,12,12,05,06,3.60
2015,12,12,05,07,3.60
2015,12,12,05,08,3.60
2015,12,12,05,09,3.70
2015,12,12,05,10,3.70
2015,12,12,05,11,3.70
2015,12,12,05,12,3.70
2015,12,12,05,13,3.70
2015,12,12,05,14,3.70
2015,12,12,05,15,3.70
2015,12,12,05,16,3.70
2015,12,12,05,17,3.70
2015,12,12,05,18,3.70
2015,12,12,05,19,3.70
2015,12,12,05,20,3.70
2015,12,12,05,21,3.70
2015,12,12,05,22,3.80
2015,12,12,05,23,3.80
2015,12,12,05,24,3.80
2015,12,12,05,25,3.80
2015,12,12,05,26,3.80
2015,12,12,05,27,3.80
2015,12,12,05,28,3.80
2015,12,12,05,29,3.80
2015,12,12,05,30,3.80
2015,12,12,05,31,3.80
2015,12,12,05,32,3.80
2015,12,12,05,33,3.80
2015,12,12,05,34,3.80
2015,12,12,05,35,3.80
2015,12,12,05,36,3.80
2015,12,12,05,37,3.80
2015,12,12,05,38,3.80
2015,12,12,05,39,3.80
2015,12,12,05,40,3.80
2015,12,12,05,41,3.90
2015,12,12,05,42,3.90
2015,12,12,05,43,3.90
2015,12,12,05,44,3.90
2015,12,12,05,45,3.90
2015,12,12,05,46,3.90
2015,12,12,05,47,3.90
2015,12,12,05,48,3.80
2015,12,12,05,49,3.90
2015,12,12,05,50,3.80
2015,12,12,05,51,3.80
2015,12,12,05,52,3.80
2015,12,12,05,53,3.80
2015,12,12,05,54,3.80
2015,12,12,05,55,3.80
2015,12,12,05,56,3.80
2015,12,12,05,57,3.80
2015,12,12,05,58,3.80
2015,12,12,05,59,3.80
2015,12,12,06,00,3.80
2015,12,12,06,01,3.80
2015,12,12,06,02,3.80
2015,12,12,06,03,3.80
2015,12,12,06,04,3.80
2015,12,12,06,05,3.80
2015,12,12,06,06,3.80
2015,12,12,06,07,3.80
2015,12,12,06,08,3.80
2015,12,12,06,09,3.80
2015,12,12,06,10,3.80
2015,12,12,06,11,3.80
2015,12,12,06,12,3.90
2015,12,12,06,13,3.90
2015,12,12,06,14,3.90
2015,12,12,06,15,3.90
2015,12,12,06,16,3.90
2015,12,12,06,17,3.90
2015,12,12,06,18,3.90
2015,12,12,06,19,3.90
2015,12,12,06,20,3.90
2015,12,12,06,21,3.90
2015,12,12,06,22,3.90
2015,12,12,06,23,3.90
2015,12,12,06,24,3.90
2015,12,12,06,25,3.90
2015,12,12,06,26,3.90
2015,12,12,06,27,3.90
2015,12,12,06,28,3.90
2015,12,12,06,29,3.90
2015,12,12,06,30,3.90
2015,12,12,06,31,3.90
2015,12,12,06,32,3.80
2015,12,12,06,33,3.80
2015,12,12,06,34,3.80
2015,12,12,06,35,3.80
2015,12,12,06,36,3.80
2015,12,12,06,37,3.80
2015,12,12,06,38,3.80
2015,12,12,06,39,3.80
2015,12,12,06,40,3.80
2015,12,12,06,41,3.80
2015,12,12,06,42,3.80
2015,12,12,06,43,3.80
2015,12,12,06,44,3.80
2015,12,12,06,45,3.70
2015,12,12,06,46,3.70
2015,12,12,06,47,3.70
2015,12,12,06,48,3.70
2015,12,12,06,49,3.70
2015,12,12,06,50,3.70
2015,12,12,06,51,3.70
2015,12,12,06,52,3.70
2015,12,12,06,53,3.70
2015,12,12,06,54,3.70
2015,12,12,06,55,3.70
2015,12,12,06,56,3.70
2015,12,12,06,57,3.70
2015,12,12,06,58,3.70
2015,12,12,06,59,3.70
2015,12,12,07,00,3.70
2015,12,12,07,01,3.70
2015,12,12,07,02,3.70
2015,12,12,07,03,3.70
2015,12,12,07,04,3.80
2015,12,12,07,05,3.80
2015,12,12,07,06,3.80
2015,12,12,07,07,3.80
2015,12,12,07,08,3.90
2015,12,12,07,09,3.90
2015,12,12,07,10,3.90
2015,12,12,07,11,3.90
2015,12,12,07,12,4.00
2015,12,12,07,13,4.00
2015,12,12,07,14,4.00
2015,12,12,07,15,4.10
2015,12,12,07,16,4.10
2015,12,12,07,17,4.10
2015,12,12,07,18,4.10
2015,12,12,07,19,4.10
2015,12,12,07,20,4.10
2015,12,12,07,21,4.10
2015,12,12,07,22,4.10
2015,12,12,07,23,4.20
2015,12,12,07,24,4.20
2015,12,12,07,25,4.20
2015,12,12,07,26,4.20
2015,12,12,07,27,4.20
2015,12,12,07,28,4.30
2015,12,12,07,29,4.30
2015,12,12,07,30,4.30
2015,12,12,07,31,4.30
2015,12,12,07,32,4.30
2015,12,12,07,33,4.30
2015,12,12,07,34,4.30
2015,12,12,07,35,4.30
2015,12,12,07,36,4.40
2015,12,12,07,37,4.40
2015,12,12,07,38,4.40
2015,12,12,07,39,4.40
2015,12,12,07,40,4.40
2015,12,12,07,41,4.40
2015,12,12,07,42,4.40
2015,12,12,07,43,4.40
2015,12,12,07,44,4.40
2015,12,12,07,45,4.40
2015,12,12,07,46,4.40
2015,12,12,07,47,4.50
2015,12,12,07,48,4.50
2015,12,12,07,49,4.50
2015,12,12,07,50,4.50
2015,12,12,07,51,4.60
2015,12,12,07,52,4.60
2015,12,12,07,53,4.60
2015,12,12,07,54,4.60
2015,12,12,07,55,4.60
2015,12,12,07,56,4.70
2015,12,12,07,57,4.70
2015,12,12,07,58,4.70
2015,12,12,07,59,4.70
2015,12,12,08,00,4.70
2015,12,12,08,01,4.70
2015,12,12,08,02,4.70
2015,12,12,08,03,4.80
2015,12,12,08,04,4.80
2015,12,12,08,05,4.80
2015,12,12,08,06,4.80
2015,12,12,08,07,4.80
2015,12,12,08,08,4.80
2015,12,12,08,09,4.80
2015,12,12,08,10,4.80
2015,12,12,08,11,4.80
2015,12,12,08,12,4.80
2015,12,12,08,13,4.80
2015,12,12,08,14,4.80
2015,12,12,08,15,4.90
2015,12,12,08,16,4.90
2015,12,12,08,17,4.90
2015,12,12,08,18,4.90
2015,12,12,08,19,4.90
2015,12,12,08,20,4.90
2015,12,12,08,21,4.90
2015,12,12,08,22,4.90
2015,12,12,08,23,4.90
2015,12,12,08,24,4.90
2015,12,12,08,25,4.90
2015,12,12,08,26,4.90
2015,12,12,08,27,4.90
2015,12,12,08,28,4.90
2015,12,12,08,29,4.90
2015,12,12,08,30,4.90
2015,12,12,08,31,4.90
2015,12,12,08,32,4.90
2015,12,12,08,33,4.90
2015,12,12,08,34,4.90
2015,12,12,08,35,4.90
2015,12,12,08,36,4.90
2015,12,12,08,37,5.00
2015,12,12,08,38,5.00
2015,12,12,08,39,5.00
2015,12,12,08,40,5.00
2015,12,12,08,41,5.00
2015,12,12,08,42,5.00
2015,12,12,08,43,5.00
2015,12,12,08,44,5.00
2015,12,12,08,45,5.00
2015,12,12,08,46,5.00
2015,12,12,08,47,5.00
2015,12,12,08,48,5.00
2015,12,12,08,49,5.10
2015,12,12,08,50,5.10
2015,12,12,08,51,5.10
2015,12,12,08,52,5.10
2015,12,12,08,53,5.10
2015,12,12,08,54,5.10
2015,12,12,08,55,5.10
2015,12,12,08,56,5.10
2015,12,12,08,57,5.10
2015,12,12,08,58,5.10
2015,12,12,08,59,5.10
2015,12,12,09,00,5.00
2015,12,12,09,01,5.00
2015,12,12,09,02,5.00
2015,12,12,09,03,5.00
2015,12,12,09,04,5.00
2015,12,12,09,05,5.00
2015,12,12,09,06,5.00
2015,12,12,09,07,5.00
2015,12,12,09,08,5.00
2015,12,12,09,09,4.90
2015,12,12,09,10,4.90
2015,12,12,09,11,4.90
2015,12,12,09,12,4.90
2015,12,12,09,13,4.90
2015,12,12,09,14,4.90
2015,12,12,09,15,4.90
2015,12,12,09,16,4.90
2015,12,12,09,17,4.90
2015,12,12,09,18,4.90
2015,12,12,09,19,4.90
2015,12,12,09,20,4.90
2015,12,12,09,21,4.90
2015,12,12,09,22,4.90
2015,12,12,09,23,4.90
2015,12,12,09,24,4.90
2015,12,12,09,25,4.90
2015,12,12,09,26,4.90
2015,12,12,09,27,4.90
2015,12,12,09,28,4.90
2015,12,12,09,29,4.90
2015,12,12,09,30,4.90
2015,12,12,09,31,4.90
2015,12,12,09,32,4.90
2015,12,12,09,33,4.80
2015,12,12,09,34,4.80
2015,12,12,09,35,4.80
2015,12,12,09,36,4.90
2015,12,12,09,37,4.90
2015,12,12,09,38,4.90
2015,12,12,09,39,4.90
2015,12,12,09,40,4.90
2015,12,12,09,41,4.90
2015,12,12,09,42,4.90
2015,12,12,09,43,4.90
2015,12,12,09,44,4.90
2015,12,12,09,45,5.00
2015,12,12,09,46,5.00
2015,12,12,09,47,5.00
2015,12,12,09,48,5.00
2015,12,12,09,49,5.00
2015,12,12,09,50,5.00
2015,12,12,09,51,5.00
2015,12,12,09,52,5.10
2015,12,12,09,53,5.10
2015,12,12,09,54,5.10
2015,12,12,09,55,5.10
2015,12,12,09,56,5.10
2015,12,12,09,57,5.10
2015,12,12,09,58,5.10
2015,12,12,09,59,5.10
2015,12,12,10,00,5.10
2015,12,12,10,01,5.10
2015,12,12,10,02,5.10
2015,12,12,10,03,5.10
2015,12,12,10,04,5.10
2015,12,12,10,05,5.10
2015,12,12,10,06,5.10
2015,12,12,10,07,5.20
2015,12,12,10,08,5.20
2015,12,12,10,09,5.20
2015,12,12,10,10,5.20
2015,12,12,10,11,5.20
2015,12,12,10,12,5.20
2015,12,12,10,13,5.20
2015,12,12,10,14,5.20
2015,12,12,10,15,5.20
2015,12,12,10,16,5.20
2015,12,12,10,17,5.20
2015,12,12,10,18,5.20
2015,12,12,10,19,5.20
2015,12,12,10,20,5.20
2015,12,12,10,21,5.20
2015,12,12,10,22,5.20
2015,12,12,10,23,5.20
2015,12,12,10,24,5.30
2015,12,12,10,25,5.30
2015,12,12,10,26,5.30
2015,12,12,10,27,5.30
2015,12,12,10,28,5.30
2015,12,12,10,29,5.30
2015,12,12,10,30,5.30
2015,12,12,10,31,5.30
2015,12,12,10,32,5.30
2015,12,12,10,33,5.30
2015,12,12,10,34,5.30
2015,12,12,10,35,5.30
2015,12,12,10,36,5.30
2015,12,12,10,37,5.30
2015,12,12,10,38,5.30
2015,12,12,10,39,5.30
2015,12,12,10,40,5.30
2015,12,12,10,41,5.30
2015,12,12,10,42,5.30
2015,12,12,10,43,5.30
2015,12,12,10,44,5.40
2015,12,12,10,45,5.30
2015,12,12,10,46,5.40
2015,12,12,10,47,5.30
2015,12,12,10,48,5.30
2015,12,12,10,49,5.30
2015,12,12,10,50,5.30
2015,12,12,10,51,5.30
2015,12,12,10,52,5.40
2015,12,12,10,53,5.40
2015,12,12,10,54,5.40
2015,12,12,10,55,5.40
2015,12,12,10,56,5.40
2015,12,12,10,57,5.40
2015,12,12,10,58,5.30
2015,12,12,10,59,5.30
2015,12,12,11,00,5.30
2015,12,12,11,01,5.40
2015,12,12,11,02,5.40
2015,12,12,11,03,5.40
2015,12,12,11,04,5.40
2015,12,12,11,05,5.40
2015,12,12,11,06,5.40
2015,12,12,11,07,5.40
2015,12,12,11,08,5.40
2015,12,12,11,09,5.40
2015,12,12,11,10,5.40
2015,12,12,11,11,5.30
2015,12,12,11,12,5.30
2015,12,12,11,13,5.30
2015,12,12,11,14,5.30
2015,12,12,11,15,5.30
2015,12,12,11,16,5.30
2015,12,12,11,17,5.30
2015,12,12,11,18,5.30
2015,12,12,11,19,5.30
2015,12,12,11,20,5.30
2015,12,12,11,21,5.30
2015,12,12,11,22,5.30
2015,12,12,11,23,5.30
2015,12,12,11,24,5.30
2015,12,12,11,25,5.30
2015,12,12,11,26,5.30
2015,12,12,11,27,5.30
2015,12,12,11,28,5.30
2015,12,12,11,29,5.20
2015,12,12,11,30,5.20
2015,12,12,11,31,5.20
2015,12,12,11,32,5.20
2015,12,12,11,33,5.20
2015,12,12,11,34,5.20
2015,12,12,11,35,5.20
2015,12,12,11,36,5.20
2015,12,12,11,37,5.20
2015,12,12,11,38,5.20
2015,12,12,11,39,5.20
2015,12,12,11,40,5.20
2015,12,12,11,41,5.20
2015,12,12,11,42,5.20
2015,12,12,11,43,5.20
2015,12,12,11,44,5.20
2015,12,12,11,45,5.20
2015,12,12,11,46,5.20
2015,12,12,11,47,5.20
2015,12,12,11,48,5.20
2015,12,12,11,49,5.20
2015,12,12,11,50,5.20
2015,12,12,11,51,5.20
2015,12,12,11,52,5.20
2015,12,12,11,53,5.20
2015,12,12,11,54,5.20
2015,12,12,11,55,5.10
2015,12,12,11,56,5.20
2015,12,12,11,57,5.10
2015,12,12,11,58,5.10
2015,12,12,11,59,5.10
2015,12,12,12,00,5.10
2015,12,12,12,01,5.10
2015,12,12,12,02,5.10
2015,12,12,12,03,5.10
2015,12,12,12,04,5.10
2015,12,12,12,05,5.10
2015,12,12,12,06,5.10
2015,12,12,12,07,5.10
2015,12,12,12,08,5.10
2015,12,12,12,09,5.10
2015,12,12,12,10,5.10
2015,12,12,12,11,5.10
2015,12,12,12,12,5.10
2015,12,12,12,13,5.10
2015,12,12,12,14,5.00
2015,12,12,12,15,5.00
2015,12,12,12,16,5.00
2015,12,12,12,17,5.00
2015,12,12,12,18,5.00
2015,12,12,12,19,5.00
2015,12,12,12,20,4.90
2015,12,12,12,21,4.90
2015,12,12,12,22,4.90
2015,12,12,12,23,4.90
2015,12,12,12,24,4.90
2015,12,12,12,25,4.90
2015,12,12,12,26,4.90
2015,12,12,12,27,4.90
2015,12,12,12,28,4.90
2015,12,12,12,29,4.90
2015,12,12,12,30,4.90
2015,12,12,12,31,4.90
2015,12,12,12,32,4.90
2015,12,12,12,33,4.90
2015,12,12,12,34,4.80
2015,12,12,12,35,4.80
2015,12,12,12,36,4.80
2015,12,12,12,37,4.80
2015,12,12,12,38,4.80
2015,12,12,12,39,4.80
2015,12,12,12,40,4.80
2015,12,12,12,41,4.80
2015,12,12,12,42,4.80
2015,12,12,12,43,4.80
2015,12,12,12,44,4.80
2015,12,12,12,45,4.80
2015,12,12,12,46,4.80
2015,12,12,12,47,4.70
2015,12,12,12,48,4.70
2015,12,12,12,49,4.80
2015,12,12,12,50,4.80
2015,12,12,12,51,4.80
2015,12,12,12,52,4.80
2015,12,12,12,53,4.80
2015,12,12,12,54,4.80
2015,12,12,12,55,4.80
2015,12,12,12,56,4.80
2015,12,12,12,57,4.80
2015,12,12,12,58,4.70
2015,12,12,12,59,4.70
2015,12,12,13,00,4.70
2015,12,12,13,01,4.70
2015,12,12,13,02,4.70
2015,12,12,13,03,4.70
2015,12,12,13,04,4.80
2015,12,12,13,05,4.80
2015,12,12,13,06,4.70
2015,12,12,13,07,4.70
2015,12,12,13,08,4.70
2015,12,12,13,09,4.70
2015,12,12,13,10,4.70
2015,12,12,13,11,4.70
2015,12,12,13,12,4.70
2015,12,12,13,13,4.70
2015,12,12,13,14,4.70
2015,12,12,13,15,4.60
2015,12,12,13,16,4.60
2015,12,12,13,17,4.60
2015,12,12,13,18,4.60
2015,12,12,13,19,4.60
2015,12,12,13,20,4.60
2015,12,12,13,21,4.60
2015,12,12,13,22,4.60
2015,12,12,13,23,4.60
2015,12,12,13,24,4.50
2015,12,12,13,25,4.50
2015,12,12,13,26,4.50
2015,12,12,13,27,4.50
2015,12,12,13,28,4.60
2015,12,12,13,29,4.60
2015,12,12,13,30,4.60
2015,12,12,13,31,4.60
2015,12,12,13,32,4.60
2015,12,12,13,33,4.60
2015,12,12,13,34,4.60
2015,12,12,13,35,4.60
2015,12,12,13,36,4.60
2015,12,12,13,37,4.60
2015,12,12,13,38,4.60
2015,12,12,13,39,4.60
2015,12,12,13,40,4.60
2015,12,12,13,41,4.60
2015,12,12,13,42,4.60
2015,12,12,13,43,4.60
2015,12,12,13,44,4.60
2015,12,12,13,45,4.60
2015,12,12,13,46,4.60
2015,12,12,13,47,4.60
2015,12,12,13,48,4.60
2015,12,12,13,49,4.60
2015,12,12,13,50,4.60
2015,12,12,13,51,4.60
2015,12,12,13,52,4.60
2015,12,12,13,53,4.60
2015,12,12,13,54,4.60
2015,12,12,13,55,4.60
2015,12,12,13,56,4.50
2015,12,12,13,57,4.50
2015,12,12,13,58,4.50
2015,12,12,13,59,4.50
2015,12,12,14,00,4.50
2015,12,12,14,01,4.40
2015,12,12,14,02,4.40
2015,12,12,14,03,4.40
2015,12,12,14,04,4.40
2015,12,12,14,05,4.40
2015,12,12,14,06,4.40
2015,12,12,14,07,4.40
2015,12,12,14,08,4.30
2015,12,12,14,09,4.30
2015,12,12,14,10,4.30
2015,12,12,14,11,4.30
2015,12,12,14,12,4.30
2015,12,12,14,13,4.30
2015,12,12,14,14,4.30
2015,12,12,14,15,4.30
2015,12,12,14,16,4.30
2015,12,12,14,17,4.30
2015,12,12,14,18,4.30
2015,12,12,14,19,4.30
2015,12,12,14,20,4.30
2015,12,12,14,21,4.30
2015,12,12,14,22,4.30
2015,12,12,14,23,4.30
2015,12,12,14,24,4.30
2015,12,12,14,25,4.30
2015,12,12,14,26,4.30
2015,12,12,14,27,4.30
2015,12,12,14,28,4.30
2015,12,12,14,29,4.30
2015,12,12,14,30,4.30
2015,12,12,14,31,4.30
2015,12,12,14,32,4.30
2015,12,12,14,33,4.30
2015,12,12,14,34,4.30
2015,12,12,14,35,4.30
2015,12,12,14,36,4.30
2015,12,12,14,37,4.30
2015,12,12,14,38,4.30
2015,12,12,14,39,4.30
2015,12,12,14,40,4.30
2015,12,12,14,41,4.30
2015,12,12,14,42,4.30
2015,12,12,14,43,4.30
2015,12,12,14,44,4.30
2015,12,12,14,45,4.30
2015,12,12,14,46,4.30
2015,12,12,14,47,4.30
2015,12,12,14,48,4.30
2015,12,12,14,49,4.30
2015,12,12,14,50,4.30
2015,12,12,14,51,4.30
2015,12,12,14,52,4.30
2015,12,12,14,53,4.30
2015,12,12,14,54,4.30
2015,12,12,14,55,4.30
2015,12,12,14,56,4.30
2015,12,12,14,57,4.30
2015,12,12,14,58,4.30
2015,12,12,14,59,4.20
2015,12,12,15,00,4.20
2015,12,12,15,01,4.20
2015,12,12,15,02,4.20
2015,12,12,15,03,4.10
2015,12,12,15,04,4.10
2015,12,12,15,05,4.10
2015,12,12,15,06,4.20
2015,12,12,15,07,4.20
2015,12,12,15,08,4.20
2015,12,12,15,09,4.20
2015,12,12,15,10,4.20
2015,12,12,15,11,4.20
2015,12,12,15,12,4.20
2015,12,12,15,13,4.20
2015,12,12,15,14,4.20
2015,12,12,15,15,4.20
2015,12,12,15,16,4.20
2015,12,12,15,17,4.30
2015,12,12,15,18,4.30
2015,12,12,15,19,4.30
2015,12,12,15,20,4.30
2015,12,12,15,21,4.30
2015,12,12,15,22,4.30
2015,12,12,15,23,4.30
2015,12,12,15,24,4.30
2015,12,12,15,25,4.30
2015,12,12,15,26,4.30
2015,12,12,15,27,4.30
2015,12,12,15,28,4.40
2015,12,12,15,29,4.40
2015,12,12,15,30,4.40
2015,12,12,15,31,4.40
2015,12,12,15,32,4.40
2015,12,12,15,33,4.40
2015,12,12,15,34,4.40
2015,12,12,15,35,4.40
2015,12,12,15,36,4.40
2015,12,12,15,37,4.40
2015,12,12,15,38,4.40
2015,12,12,15,39,4.40
2015,12,12,15,40,4.40
2015,12,12,15,41,4.40
2015,12,12,15,42,4.40
2015,12,12,15,43,4.40
2015,12,12,15,44,4.40
2015,12,12,15,45,4.40
2015,12,12,15,46,4.40
2015,12,12,15,47,4.40
2015,12,12,15,48,4.40
2015,12,12,15,49,4.40
2015,12,12,15,50,4.40
2015,12,12,15,51,4.40
2015,12,12,15,52,4.40
2015,12,12,15,53,4.40
2015,12,12,15,54,4.40
2015,12,12,15,55,4.40
2015,12,12,15,56,4.40
2015,12,12,15,57,4.40
2015,12,12,15,58,4.40
2015,12,12,15,59,4.40
2015,12,12,16,00,4.30
2015,12,12,16,01,4.30
2015,12,12,16,02,4.30
2015,12,12,16,03,4.30
2015,12,12,16,04,4.30
2015,12,12,16,05,4.30
2015,12,12,16,06,4.30
2015,12,12,16,07,4.30
2015,12,12,16,08,4.30
2015,12,12,16,09,4.30
2015,12,12,16,10,4.40
2015,12,12,16,11,4.40
2015,12,12,16,12,4.40
2015,12,12,16,13,4.40
2015,12,12,16,14,4.40
2015,12,12,16,15,4.40
2015,12,12,16,16,4.40
2015,12,12,16,17,4.40
2015,12,12,16,18,4.40
2015,12,12,16,19,4.40
2015,12,12,16,20,4.40
2015,12,12,16,21,4.50
2015,12,12,16,22,4.50
2015,12,12,16,23,4.50
2015,12,12,16,24,4.50
2015,12,12,16,25,4.50
2015,12,12,16,26,4.50
2015,12,12,16,27,4.60
2015,12,12,16,28,4.60
2015,12,12,16,29,4.60
2015,12,12,16,30,4.60
2015,12,12,16,31,4.60
2015,12,12,16,32,4.60
2015,12,12,16,33,4.60
2015,12,12,16,34,4.60
2015,12,12,16,35,4.50
2015,12,12,16,36,4.50
2015,12,12,16,37,4.50
2015,12,12,16,38,4.50
2015,12,12,16,39,4.50
2015,12,12,16,40,4.50
2015,12,12,16,41,4.50
2015,12,12,16,42,4.50
2015,12,12,16,43,4.50
2015,12,12,16,44,4.50
2015,12,12,16,45,4.60
2015,12,12,16,46,4.60
2015,12,12,16,47,4.60
2015,12,12,16,48,4.60
2015,12,12,16,49,4.60
2015,12,12,16,50,4.60
2015,12,12,16,51,4.60
2015,12,12,16,52,4.60
2015,12,12,16,53,4.60
2015,12,12,16,54,4.70
2015,12,12,16,55,4.70
2015,12,12,16,56,4.70
2015,12,12,16,57,4.70
2015,12,12,16,58,4.70
2015,12,12,16,59,4.70
2015,12,12,17,00,4.70
2015,12,12,17,01,4.70
2015,12,12,17,02,4.70
2015,12,12,17,03,4.70
2015,12,12,17,04,4.70
2015,12,12,17,05,4.70
2015,12,12,17,06,4.70
2015,12,12,17,07,4.70
2015,12,12,17,08,4.70
2015,12,12,17,09,4.70
2015,12,12,17,10,4.80
2015,12,12,17,11,4.80
2015,12,12,17,12,4.80
2015,12,12,17,13,4.80
2015,12,12,17,14,4.80
2015,12,12,17,15,4.80
2015,12,12,17,16,4.80
2015,12,12,17,17,4.80
2015,12,12,17,18,4.80
2015,12,12,17,19,4.80
2015,12,12,17,20,4.80
2015,12,12,17,21,4.80
2015,12,12,17,22,4.80
2015,12,12,17,23,4.80
2015,12,12,17,24,4.80
2015,12,12,17,25,4.80
2015,12,12,17,26,4.80
2015,12,12,17,27,4.80
2015,12,12,17,28,4.80
2015,12,12,17,29,4.80
2015,12,12,17,30,4.80
2015,12,12,17,31,4.90
2015,12,12,17,32,4.90
2015,12,12,17,33,4.90
2015,12,12,17,34,4.90
2015,12,12,17,35,4.90
2015,12,12,17,36,4.90
2015,12,12,17,37,4.90
2015,12,12,17,38,4.90
2015,12,12,17,39,4.90
2015,12,12,17,40,5.00
2015,12,12,17,41,5.00
2015,12,12,17,42,5.00
2015,12,12,17,43,5.00
2015,12,12,17,44,5.00
2015,12,12,17,45,5.00
2015,12,12,17,46,5.00
2015,12,12,17,47,5.00
2015,12,12,17,48,5.00
2015,12,12,17,49,5.00
2015,12,12,17,50,5.10
2015,12,12,17,51,5.10
2015,12,12,17,52,5.10
2015,12,12,17,53,5.10
2015,12,12,17,54,5.10
2015,12,12,17,55,5.10
2015,12,12,17,56,5.10
2015,12,12,17,57,5.10
2015,12,12,17,58,5.10
2015,12,12,17,59,5.10
2015,12,12,18,00,5.10
2015,12,12,18,01,5.20
2015,12,12,18,02,5.20
2015,12,12,18,03,5.20
2015,12,12,18,04,5.20
2015,12,12,18,05,5.20
2015,12,12,18,06,5.30